sat.trackr.live / text

‹ back to catalog

THURAYA-2

NORAD 27825 · 2003-026A

PAYLOAD ACTIVE UNKNOWN

§ Identity

Operator
Country
UAE
Launch date
2003-06-10
Launch site
SEAL
Launch vehicle
Mass (kg)
RCS (m²)
10.02

Purposes: comms

External: N2YO · Heavens-Above · Gunter

§ Orbital elements

Epoch: 2026-09-19T12:02:50.235648Z

Period
1,436.08 min
Inclination
8.9843°
Eccentricity
0.0000383
Mean motion
1.00272665 rev/d
Perigee alt
35,784.7 km
Apogee alt
35,788.0 km
Semi-major
42,164.5 km
B*
0.0000e+0
RAAN
31.5004°
Arg perigee
73.7419°
Mean anomaly
117.8922°
Rev number
8,529

§ Raw data

THURAYA-21 27825U 03026A   26262.50197032  .00000124  00000+0  00000+0 0  99952 27825   8.9843  31.5004 0000383  73.7419 117.8922  1.00272665 85299

JSON: /api/v1/satellites/27825 · /tle

For live sub-satellite position, see the globe view (requires WebGL).

§ Visibility from observer

Set your observer location to see the next 7 days of passes ≥ 10°. The values pass through the URL so the page stays shareable.

No JS? Fill the form by hand. The geolocation button needs JavaScript.